User: anonymous   Login
Location: Unspecified
(0.0000°N, 0.0000°E)
Time: 10:05:16
(UTC+00:00)
Language:

STARLINK-34408 - Orbit

View from above orbital plane
View from above orbital plane
View from above satellite
View from above satellite

Ground track
Ground track

The orbit is defined by the following mean orbital elements,

1 64363U          26145.58086434 +.00000000 +00000-0 +19717-3 0 00009
2 64363  70.0005 200.4149 0004135 266.4828  93.5858 14.98335275    00
Epoch (UTC): 25 May 2026 13:56:26
Eccentricity: 0.0004135
inclination: 70.0005°
perigee height: 569 km
apogee height: 575 km
right ascension of ascending node: 200.4149°
argument of perigee: 266.4828°
revolutions per day: 14.98335275
mean anomaly at epoch: 93.5858°

The dashed part of the orbit path shows where the satellite is in the earth's shadow,  

DLR